sat.trackr.live / text

‹ back to catalog

ONEWEB-0248

NORAD 48798 · 2021-045AH

PAYLOAD ACTIVE UNKNOWN

§ Identity

Operator
Country
UK
Launch date
2021-05-28
Launch site
VOSTO
Launch vehicle
Mass (kg)
RCS (m²)

Purposes: comms

External: N2YO · Heavens-Above · Gunter

§ Orbital elements

Epoch: 2026-09-02T12:55:54.497280Z

Period
109.46 min
Inclination
87.8969°
Eccentricity
0.0002190
Mean motion
13.15548576 rev/d
Perigee alt
1,200.1 km
Apogee alt
1,203.4 km
Semi-major
7,579.9 km
B*
3.1763e-4
RAAN
243.7723°
Arg perigee
74.7070°
Mean anomaly
285.4302°
Rev number
25,458

§ Raw data

ONEWEB-02481 48798U 21045AH  26245.53882520  .00000132  00000+0  31763-3 0  99982 48798  87.8969 243.7723 0002190  74.7070 285.4302 13.15548576254583

JSON: /api/v1/satellites/48798 · /tle

For live sub-satellite position, see the globe view (requires WebGL).

§ Visibility from observer

Set your observer location to see the next 7 days of passes ≥ 10°. The values pass through the URL so the page stays shareable.

No JS? Fill the form by hand. The geolocation button needs JavaScript.